TimeCST,TemperatureF,Dew PointF,Humidity,Sea Level PressureIn,VisibilityMPH,Wind Direction,Wind SpeedMPH,Gust SpeedMPH,PrecipitationIn,Events,Conditions,WindDirDegrees,DateUTC
12:15 AM,30.2,28.4,93,29.83,10.0,South,3.5,-,N/A,,Clear,180,2013-01-19 06:15:00
12:35 AM,30.2,28.4,93,29.82,10.0,South,6.9,-,N/A,,Clear,170,2013-01-19 06:35:00
12:55 AM,32.0,28.4,87,29.82,10.0,South,6.9,-,N/A,,Partly Cloudy,170,2013-01-19 06:55:00
1:15 AM,32.0,28.4,87,29.81,10.0,South,9.2,-,N/A,,Mostly Cloudy,180,2013-01-19 07:15:00
1:35 AM,32.0,28.4,87,29.81,10.0,South,8.1,-,N/A,,Mostly Cloudy,190,2013-01-19 07:35:00
1:55 AM,32.0,28.4,87,29.82,10.0,SSW,9.2,-,N/A,,Overcast,200,2013-01-19 07:55:00
2:15 AM,32.0,30.2,93,29.82,10.0,South,9.2,-,N/A,,Overcast,190,2013-01-19 08:15:00
2:35 AM,32.0,28.4,87,29.82,10.0,South,9.2,-,N/A,,Partly Cloudy,190,2013-01-19 08:35:00
2:55 AM,32.0,28.4,87,29.81,10.0,South,8.1,-,N/A,,Scattered Clouds,190,2013-01-19 08:55:00
3:15 AM,30.2,28.4,93,29.80,10.0,South,9.2,-,N/A,,Mostly Cloudy,180,2013-01-19 09:15:00
3:35 AM,32.0,28.4,87,29.79,10.0,South,8.1,-,N/A,,Mostly Cloudy,180,2013-01-19 09:35:00
3:55 AM,32.0,28.4,87,29.79,10.0,South,10.4,-,N/A,,Mostly Cloudy,190,2013-01-19 09:55:00
4:15 AM,32.0,28.4,87,29.78,-9999.0,SSW,9.2,-,N/A,,Mostly Cloudy,200,2013-01-19 10:15:00
4:35 AM,32.0,28.4,87,29.78,10.0,SSW,10.4,-,N/A,,Mostly Cloudy,200,2013-01-19 10:35:00
4:55 AM,32.0,30.2,93,29.77,10.0,South,11.5,-,N/A,,Overcast,190,2013-01-19 10:55:00
5:15 AM,32.0,30.2,93,29.78,10.0,SSW,9.2,-,N/A,,Overcast,200,2013-01-19 11:15:00
5:35 AM,33.8,30.2,87,29.79,10.0,SW,8.1,-,N/A,,Overcast,220,2013-01-19 11:35:00
5:55 AM,33.8,30.2,87,29.78,10.0,SSW,10.4,-,N/A,,Overcast,210,2013-01-19 11:55:00
6:35 AM,33.8,30.2,87,29.78,10.0,SSW,10.4,-,N/A,,Overcast,210,2013-01-19 12:35:00
6:55 AM,32.0,30.2,93,29.78,10.0,SSW,9.2,-,N/A,,Overcast,210,2013-01-19 12:55:00
7:15 AM,32.0,30.2,93,29.78,10.0,SW,8.1,-,N/A,,Overcast,220,2013-01-19 13:15:00
7:55 AM,33.8,28.4,81,29.79,10.0,SW,6.9,-,N/A,,Overcast,230,2013-01-19 13:55:00
8:15 AM,32.0,28.4,87,29.80,10.0,WSW,8.1,-,N/A,,Mostly Cloudy,240,2013-01-19 14:15:00
8:35 AM,32.0,28.4,87,29.79,10.0,SW,8.1,-,N/A,,Partly Cloudy,230,2013-01-19 14:35:00
9:55 AM,41.0,30.2,65,29.81,10.0,West,18.4,-,N/A,,Clear,270,2013-01-19 15:55:00
10:15 AM,41.0,30.2,65,29.83,10.0,WNW,17.3,24.2,N/A,,Clear,290,2013-01-19 16:15:00
10:35 AM,41.0,30.2,65,29.83,10.0,WNW,16.1,26.5,N/A,,Clear,290,2013-01-19 16:35:00
10:55 AM,42.8,30.2,61,29.83,10.0,WNW,17.3,24.2,N/A,,Clear,300,2013-01-19 16:55:00
11:15 AM,44.6,32.0,61,29.83,10.0,WNW,21.9,-,N/A,,Clear,300,2013-01-19 17:15:00
11:35 AM,44.6,32.0,61,29.83,10.0,NW,21.9,27.6,N/A,,Clear,310,2013-01-19 17:35:00
11:55 AM,44.6,32.0,61,29.83,10.0,NW,18.4,26.5,N/A,,Clear,320,2013-01-19 17:55:00
12:15 PM,44.6,32.0,61,29.83,10.0,NW,21.9,-,N/A,,Clear,320,2013-01-19 18:15:00
12:35 PM,46.4,32.0,57,29.83,10.0,NW,19.6,-,N/A,,Clear,310,2013-01-19 18:35:00
12:55 PM,46.4,32.0,57,29.83,10.0,WNW,19.6,-,N/A,,Clear,300,2013-01-19 18:55:00
1:15 PM,48.2,32.0,54,29.83,10.0,WNW,18.4,25.3,N/A,,Clear,300,2013-01-19 19:15:00
1:35 PM,48.2,32.0,54,29.84,10.0,NW,18.4,28.8,N/A,,Clear,320,2013-01-19 19:35:00
1:55 PM,48.2,32.0,54,29.85,10.0,NW,23.0,29.9,N/A,,Clear,310,2013-01-19 19:55:00
2:15 PM,48.2,32.0,54,29.86,10.0,WNW,26.5,32.2,N/A,,Clear,300,2013-01-19 20:15:00
2:35 PM,48.2,32.0,54,29.87,10.0,WNW,23.0,32.2,N/A,,Clear,300,2013-01-19 20:35:00
2:55 PM,46.4,32.0,57,29.88,10.0,NW,24.2,31.1,N/A,,Partly Cloudy,310,2013-01-19 20:55:00
3:15 PM,46.4,30.2,53,29.90,10.0,NW,25.3,33.4,N/A,,Partly Cloudy,320,2013-01-19 21:15:00
3:35 PM,44.6,30.2,57,29.91,10.0,NW,25.3,33.4,N/A,,Mostly Cloudy,320,2013-01-19 21:35:00
3:55 PM,42.8,30.2,61,29.92,10.0,North,-9999.0,-,N/A,,Overcast,0,2013-01-19 21:55:00
4:15 PM,41.0,30.2,65,29.93,10.0,WNW,26.5,-,N/A,,Mostly Cloudy,300,2013-01-19 22:15:00
4:35 PM,41.0,30.2,65,29.95,10.0,WNW,24.2,34.5,N/A,,Mostly Cloudy,300,2013-01-19 22:35:00
4:55 PM,39.2,28.4,65,29.96,10.0,NW,24.2,33.4,N/A,,Mostly Cloudy,310,2013-01-19 22:55:00
5:15 PM,33.8,28.4,81,29.98,10.0,NNW,21.9,41.4,N/A,,Overcast,340,2013-01-19 23:15:00
5:35 PM,32.0,26.6,80,30.00,10.0,NNW,25.3,32.2,N/A,,Overcast,330,2013-01-19 23:35:00
5:55 PM,30.2,26.6,86,30.01,10.0,NNW,23.0,31.1,N/A,,Mostly Cloudy,330,2013-01-19 23:55:00
6:15 PM,30.2,24.8,80,30.02,10.0,NW,26.5,-,N/A,,Partly Cloudy,320,2013-01-20 00:15:00
6:35 PM,28.4,23.0,80,30.05,10.0,NNW,26.5,38.0,N/A,,Mostly Cloudy,340,2013-01-20 00:35:00
6:55 PM,24.8,17.6,74,30.08,10.0,NNW,24.2,38.0,N/A,,Overcast,340,2013-01-20 00:55:00
7:15 PM,23.0,15.8,74,30.09,10.0,NNW,24.2,36.8,N/A,,Scattered Clouds,330,2013-01-20 01:15:00
7:35 PM,23.0,14.0,68,30.12,10.0,NNW,27.6,39.1,N/A,,Mostly Cloudy,340,2013-01-20 01:35:00
7:55 PM,21.2,12.2,68,30.13,10.0,NNW,25.3,36.8,N/A,Snow,Light Snow,330,2013-01-20 01:55:00
8:15 PM,19.4,10.4,68,30.14,10.0,NW,36.8,47.2,N/A,,Mostly Cloudy,320,2013-01-20 02:15:00
8:35 PM,17.6,5.0,58,30.15,10.0,NNW,32.2,43.7,N/A,,Scattered Clouds,330,2013-01-20 02:35:00
8:55 PM,15.8,3.2,58,30.17,10.0,NW,31.1,43.7,N/A,,Clear,320,2013-01-20 02:55:00
9:15 PM,15.8,3.2,58,30.18,10.0,NW,34.5,42.6,N/A,,Clear,320,2013-01-20 03:15:00
9:35 PM,14.0,1.4,57,30.19,10.0,NNW,32.2,-,N/A,,Clear,330,2013-01-20 03:35:00
9:55 PM,14.0,3.2,62,30.21,10.0,NW,27.6,34.5,N/A,,Clear,320,2013-01-20 03:55:00
10:15 PM,12.2,1.4,62,30.22,10.0,NNW,28.8,35.7,N/A,,Clear,330,2013-01-20 04:15:00
10:35 PM,12.2,1.4,62,30.23,10.0,NW,27.6,35.7,N/A,,Clear,320,2013-01-20 04:35:00
10:55 PM,10.4,-0.4,62,30.23,10.0,NW,26.5,-,N/A,,Clear,320,2013-01-20 04:55:00
11:15 PM,10.4,-0.4,62,30.23,10.0,NW,24.2,32.2,N/A,,Clear,320,2013-01-20 05:15:00
11:35 PM,10.4,1.4,67,30.23,10.0,NW,23.0,-,N/A,,Clear,320,2013-01-20 05:35:00
11:55 PM,10.4,-0.4,62,30.24,10.0,NW,26.5,32.2,N/A,,Clear,320,2013-01-20 05:55:00